User: anonymous
Location: Columbia
(38.9520°N, 92.3340°W)
Time: 04:35:10
(UTC-05:00)
Language:

CZ-4B R/B - Orbit

View from above orbital plane
View from above orbital plane
View from above satellite
View from above satellite

Ground track
Ground track

The orbit data is extracted from the following two-line orbital elements,

1 29093U 06015B   14106.81902270  .00012586  00000-0  47042-3 0  2744
2 29093 097.5238 186.1056 0094664 115.9704 021.5533 15.23293947440239
Epoch (UTC): 16 April 2014 19:39:23
Eccentricity: 0.0094664
inclination: 97.5238°
perigee height: 431 km
apogee height: 561 km
right ascension of ascending node: 186.1056°
argument of perigee: 115.9704°
revolutions per day: 15.23293947
mean anomaly at epoch: 21.5533°
orbit number at epoch: 44023

The dashed part of the orbit path shows where the satellite is in the earth's shadow,  

DLR